Theta_e
296 297 296 297 296 294 293 294 293 293 294 295 292 292 294 295 289 287 292 294 292 294 296 298 299 300 301 302 303 304 305 306 306 307 307 307 308 309 309 310 311 312 310 310 312 315 315 314 314 315 316 317 318 319 320 321 322 322 323 321 319 319 319 318 317 318 319 319 320 321 322 322 322 322 320 320 318 317 316 315 315 314 315 315 314 312 312
295 295 296 296 295 294 294 293 293 294 294 294 294 293 295 294 292 293 294 294 294 296 297 298 300 303 303 304 305 306 304 304 305 305 306 306 307 307 308 309 310 311 311 311 312 313 314 316 314 314 315 315 316 317 317 319 320 321 322 320 321 320 319 319 319 320 320 321 320 320 321 321 321 320 319 318 317 316 314 314 314 314 314 314 313 312 311
293 294 296 296 295 294 292 293 294 294 294 294 294 294 294 294 294 294 295 294 293 297 300 300 303 304 304 304 303 303 304 304 305 305 305 305 306 307 308 309 309 310 310 311 312 312 313 314 314 315 316 317 319 319 320 319 320 321 321 320 321 319 320 320 321 320 320 321 321 319 321 321 320 318 318 317 316 314 314 314 314 313 313 311 312 312 311
290 293 294 294 294 294 292 292 293 293 293 292 293 291 295 293 292 293 293 292 291 297 300 301 302 302 302 302 302 303 304 304 305 304 305 305 306 307 308 309 309 309 310 310 311 313 314 314 315 314 315 316 315 316 316 317 320 321 322 322 321 320 321 321 323 322 321 322 321 320 320 320 320 318 317 316 314 313 313 313 313 313 313 311 311 312 311
288 292 294 293 293 292 289 292 293 294 294 295 295 296 297 297 296 292 288 291 296 298 300 298 299 301 301 302 302 303 304 304 304 304 305 305 306 307 307 308 309 310 310 311 312 314 315 314 314 315 316 316 317 317 316 318 319 320 320 320 320 320 320 321 321 322 322 321 320 318 318 319 319 317 314 313 312 313 311 312 312 311 312 312 311 311 311
288 292 293 293 289 283 284 296 299 297 295 295 293 293 295 297 298 295 297 297 298 299 299 298 298 299 300 301 304 306 305 304 304 305 305 306 306 307 308 309 309 310 311 312 313 314 315 315 316 318 319 318 319 319 319 319 319 320 319 320 319 319 320 321 321 322 321 320 319 318 319 318 317 314 313 311 312 313 313 314 312 311 313 312 312 312 311
288 292 292 286 281 284 297 300 301 301 299 298 296 297 297 298 299 299 297 297 297 299 300 300 301 302 303 304 304 304 306 306 305 305 305 306 306 307 308 309 310 311 312 313 314 314 315 316 318 317 316 318 318 318 319 318 320 319 320 320 321 320 320 321 321 321 320 319 319 319 318 316 315 313 312 311 311 313 312 312 312 312 312 312 312 312 311
291 288 287 278 281 294 298 299 301 301 299 298 298 296 298 299 299 299 297 298 298 300 300 301 302 302 303 304 304 305 306 306 305 304 304 306 307 307 308 308 310 311 311 312 313 314 315 315 316 316 316 318 318 317 318 319 319 320 320 320 320 320 319 319 320 320 320 318 317 317 315 313 312 311 312 312 313 314 312 312 313 313 314 313 312 311 310
285 286 286 285 293 292 294 291 297 298 295 295 293 287 292 300 300 299 298 298 299 300 300 301 302 304 304 302 302 305 305 305 306 305 306 307 307 308 309 309 310 312 312 312 313 314 315 315 315 316 317 318 318 317 317 317 318 318 319 319 319 320 320 320 320 321 320 318 318 317 316 314 313 314 315 315 315 314 312 312 312 312 313 312 312 311 310
290 286 285 285 285 282 288 296 301 301 301 301 300 297 292 300 300 301 300 298 299 299 300 301 302 303 299 297 298 304 306 306 306 307 307 307 308 308 309 310 310 311 313 314 314 314 315 315 315 316 317 316 317 317 317 318 317 317 316 317 318 318 319 320 320 320 319 317 317 317 316 315 315 316 316 316 314 313 312 312 312 312 312 311 311 311 310
288 286 283 282 280 283 294 296 299 302 303 302 302 294 288 299 300 300 300 299 299 299 299 300 302 299 294 295 298 305 306 306 307 306 306 307 308 308 309 309 308 309 311 313 313 314 314 314 314 316 316 315 315 316 316 316 317 316 316 316 317 318 319 320 320 320 320 318 316 317 318 317 317 316 315 315 312 310 312 312 312 312 311 310 310 310 310
287 286 283 282 286 284 294 299 300 301 303 301 299 284 285 297 300 301 301 300 300 300 301 302 300 298 293 295 300 305 306 307 307 307 307 307 307 307 309 309 310 310 310 309 310 312 312 312 315 315 315 314 314 315 315 316 316 316 316 317 317 317 318 319 320 320 320 318 318 317 316 314 312 314 313 309 310 311 312 310 310 308 309 308 308 309 310
288 283 285 287 288 294 301 300 302 302 303 300 286 282 290 299 301 302 302 302 302 302 301 301 299 301 302 303 305 307 306 306 306 308 308 308 308 308 308 309 309 310 309 309 308 308 311 312 313 313 312 312 312 313 313 314 315 316 317 318 318 318 318 318 318 319 320 319 317 317 316 314 313 311 310 310 311 311 310 309 309 308 307 307 308 308 309
287 288 285 285 288 297 301 302 303 303 298 287 286 296 302 302 301 302 303 302 303 303 302 302 301 303 305 305 306 306 306 306 306 306 307 308 308 310 309 308 308 309 309 309 309 310 310 310 311 312 311 311 311 311 311 313 314 315 317 318 318 317 318 317 317 318 319 319 319 318 316 315 313 311 311 311 309 309 309 309 308 308 309 308 308 308 308
290 287 285 284 281 292 302 302 300 302 290 292 300 302 303 303 303 302 303 303 303 303 302 303 304 304 304 305 305 305 306 306 306 306 307 307 307 307 308 308 309 308 308 308 307 309 310 311 310 310 311 310 310 310 310 312 313 314 315 316 317 317 317 317 317 317 318 318 317 318 317 315 312 310 310 310 309 309 308 307 307 307 309 309 308 307 307
285 286 283 284 293 298 304 301 292 300 300 302 304 303 301 303 304 303 303 303 304 304 303 303 303 304 304 304 305 305 305 306 307 307 307 308 307 307 308 308 308 308 307 306 307 308 309 309 310 310 310 309 309 309 310 312 314 314 314 314 314 315 316 317 317 318 317 318 318 318 317 315 314 313 311 310 309 309 309 308 307 308 308 308 307 306 306
289 288 292 298 300 302 304 303 302 303 305 306 306 305 303 302 302 305 302 303 304 304 304 304 304 303 304 304 305 304 304 305 305 305 306 306 307 307 306 306 307 306 306 306 306 306 307 308 309 309 310 309 309 309 311 312 312 312 313 313 313 313 313 315 316 317 317 317 317 317 317 316 314 313 311 309 308 308 309 308 307 306 306 307 306 305 305
300 301 300 301 301 302 302 304 305 304 305 306 306 305 303 304 305 304 303 304 304 304 305 303 303 303 304 304 304 304 304 304 305 306 306 306 307 307 306 307 307 307 307 306 306 305 306 307 307 308 309 309 308 309 311 311 311 311 311 311 311 311 312 313 314 316 316 316 316 316 316 315 315 314 312 307 306 308 307 307 306 305 307 305 304 304 304
294 288 301 299 300 302 303 303 305 307 307 305 306 305 305 305 305 305 305 306 306 306 306 305 304 304 304 304 303 303 303 303 304 305 305 306 306 306 305 306 306 306 306 305 304 304 305 306 306 306 307 308 309 310 310 311 311 311 310 311 310 310 311 311 313 315 316 315 315 315 315 314 314 313 312 311 310 308 307 307 306 307 305 304 303 302 302
293 292 298 301 303 303 304 303 303 303 304 305 306 306 306 306 307 307 307 308 307 307 306 306 305 304 304 303 303 302 303 303 303 304 304 304 305 306 307 307 307 306 305 305 305 305 304 305 306 306 306 306 308 309 310 310 311 310 310 310 310 310 310 311 310 312 313 306 310 314 314 314 312 312 311 311 310 308 308 308 307 305 305 303 302 301 302
296 299 300 300 301 301 302 303 305 305 305 305 305 305 306 306 306 306 306 308 307 307 306 306 305 303 303 303 303 302 303 303 303 303 304 304 305 305 305 306 306 305 305 305 306 306 304 305 305 305 306 307 307 309 309 310 311 310 309 310 310 311 310 310 310 311 311 313 313 313 314 314 313 313 311 311 311 311 312 311 308 307 307 306 303 303 302
291 292 295 300 292 292 299 302 304 305 306 306 305 305 305 305 305 305 304 305 308 308 308 307 305 302 302 303 303 303 303 303 304 303 303 304 304 305 306 306 306 306 306 306 305 305 305 305 304 304 305 306 307 308 308 309 310 310 309 309 309 309 309 310 310 310 311 311 313 313 314 313 313 313 302 300 306 312 312 302 298 297 298 303 304 304 303
291 297 299 302 301 300 301 303 305 305 306 306 304 304 304 304 305 306 305 304 304 304 305 305 304 304 304 304 304 303 303 304 304 304 304 304 304 304 305 305 304 304 305 305 305 305 304 305 304 304 305 305 306 308 308 309 308 308 308 307 307 308 308 309 308 311 311 310 311 313 314 313 313 311 312 306 292 290 293 298 297 295 294 296 296 297 304
300 302 302 303 302 299 302 304 305 305 307 306 305 305 305 305 306 306 307 306 305 304 304 304 305 305 305 306 305 303 303 304 304 304 305 304 304 304 305 304 304 304 304 304 304 304 305 305 304 304 304 305 306 307 308 308 308 308 308 308 307 307 307 308 308 310 310 310 311 311 311 313 312 310 309 310 305 291 288 292 294 294 294 292 291 293 294
299 303 304 304 304 304 305 305 306 307 307 307 305 305 306 307 307 307 306 305 305 305 303 303 304 305 304 304 304 303 303 303 303 302 302 303 303 303 303 304 303 303 304 304 305 305 305 304 304 304 305 306 307 307 308 308 308 307 308 308 310 310 310 309 308 308 308 309 310 310 311 311 311 310 309 308 307 302 295 288 289 291 291 290 290 290 290
304 304 305 306 306 305 305 305 305 305 306 307 308 309 308 306 305 305 305 304 304 305 304 303 303 303 303 302 303 303 302 301 301 301 303 302 302 302 303 303 304 304 304 304 304 304 304 304 304 305 305 305 306 307 308 308 308 308 308 309 311 312 311 309 308 308 308 309 309 309 310 311 310 309 308 308 308 305 298 296 294 291 289 288 289 288 289
305 305 304 303 303 303 304 302 301 307 307 308 308 305 304 304 305 305 305 305 305 305 304 304 304 304 304 303 301 302 301 301 301 301 301 301 301 302 303 304 304 304 304 304 304 302 300 303 303 304 304 305 306 307 308 309 309 309 309 310 309 301 297 302 312 310 309 310 310 310 310 310 308 307 306 307 306 304 301 298 296 295 293 292 289 289 290
304 305 305 300 299 300 303 305 307 308 306 305 305 304 304 305 305 304 303 303 303 304 303 304 303 302 301 301 301 300 300 299 299 299 300 300 301 303 304 304 304 304 303 303 303 303 303 303 303 304 304 305 306 306 306 307 309 310 309 308 308 309 308 307 312 314 312 312 311 311 310 309 308 306 302 302 299 304 302 300 297 295 295 295 292 288 288
303 303 305 305 305 305 307 308 307 306 305 305 305 305 304 304 303 302 302 302 302 302 301 301 301 301 300 300 300 299 299 299 299 300 300 301 303 303 304 304 303 303 303 302 303 303 303 303 303 303 304 306 306 306 306 306 307 307 309 310 310 309 309 307 309 313 314 313 313 311 303 307 308 307 305 304 302 303 300 299 297 297 299 296 292 289 288
304 305 305 305 306 306 305 305 305 305 304 304 304 304 305 303 301 301 301 301 301 300 300 301 300 300 300 300 300 300 299 299 300 300 301 302 303 303 303 303 303 302 302 302 302 303 303 302 303 302 303 306 306 306 306 307 306 307 309 310 309 308 308 308 307 309 312 312 311 302 306 307 306 306 303 303 301 301 299 298 297 297 299 295 291 291 289
304 305 304 305 305 305 303 304 305 305 304 304 304 304 303 302 301 301 301 301 301 300 301 300 300 301 300 300 300 301 301 301 301 301 302 303 303 303 303 303 301 299 300 300 302 302 302 303 303 302 304 306 306 306 306 306 306 306 308 309 310 299 293 292 296 309 311 309 307 308 307 305 305 303 301 299 299 298 298 297 296 297 298 298 295 295 293
303 304 305 305 304 304 304 304 304 304 304 304 303 302 301 301 299 299 300 299 300 300 300 300 300 300 300 301 301 300 300 301 301 302 302 303 302 303 302 303 302 298 302 302 302 303 303 303 302 303 304 306 306 306 306 305 305 305 306 301 305 306 302 294 302 306 303 308 308 306 304 304 304 302 300 299 298 297 296 296 296 296 298 299 297 298 298
302 301 302 303 303 303 303 304 302 302 303 303 302 302 302 301 301 300 300 300 300 300 300 301 301 301 301 301 301 300 301 301 301 301 301 301 302 302 303 303 303 302 302 302 304 304 303 302 302 304 304 304 305 306 306 306 305 303 304 306 306 306 300 298 299 305 304 306 307 306 307 306 304 302 301 299 298 296 296 296 297 297 297 298 300 300 299
303 302 304 304 303 301 301 301 303 303 303 303 302 301 301 301 301 300 300 300 300 300 300 301 302 302 301 301 301 301 301 300 298 299 300 301 301 301 302 302 302 302 302 303 304 303 303 303 303 303 303 303 305 305 306 306 305 304 304 306 306 306 305 305 306 307 307 306 307 308 304 305 304 302 299 298 298 298 296 296 295 297 299 299 301 302 298
307 307 306 306 305 305 305 303 303 303 301 300 300 300 301 302 301 301 301 300 300 301 301 302 301 301 301 301 300 300 300 299 299 300 300 300 301 301 301 301 301 301 301 301 302 302 303 303 304 302 302 304 305 305 305 305 305 304 305 305 305 305 304 304 305 306 307 307 307 307 306 305 304 299 299 300 300 299 297 297 297 297 298 299 301 302 298
306 305 304 304 305 304 304 304 303 302 300 299 299 300 300 301 301 300 300 300 302 301 301 301 301 301 300 300 300 300 299 300 300 300 300 300 300 301 301 300 300 299 299 300 301 303 303 303 293 289 299 304 304 305 304 302 303 304 304 304 305 304 302 303 304 303 305 308 307 306 308 303 302 301 300 300 300 299 298 296 296 296 297 298 299 302 298
306 305 304 304 305 305 304 303 302 301 301 301 301 301 301 301 301 301 301 301 302 302 302 301 301 300 299 300 300 301 300 300 300 299 299 300 300 300 300 299 299 298 298 297 300 303 303 303 292 289 298 304 304 305 304 289 300 300 302 305 304 303 302 303 303 305 306 307 306 307 303 305 305 306 301 301 300 299 298 297 295 296 297 297 298 299 298
306 305 305 305 305 304 304 303 302 302 302 301 301 300 300 301 301 301 301 301 302 302 302 301 301 301 301 301 300 299 299 300 300 300 300 299 300 299 298 298 297 298 298 298 301 303 304 300 292 297 304 303 303 304 300 290 288 299 304 303 302 302 302 303 304 304 301 304 303 307 306 306 305 305 305 303 302 300 299 297 296 296 296 297 298 298 298
305 306 305 305 305 304 303 303 302 302 301 300 300 300 300 300 301 302 301 301 301 302 302 301 300 300 300 299 298 299 299 299 299 299 299 299 299 298 298 297 300 300 301 301 302 301 301 298 301 303 303 302 302 303 299 293 289 302 303 303 303 303 304 305 303 302 302 303 302 304 306 305 305 303 303 303 303 300 297 297 296 295 296 297 297 297 297
304 304 304 304 303 303 302 302 302 301 301 301 300 300 300 300 300 300 300 300 301 302 301 301 300 299 298 298 298 298 299 299 299 299 299 299 298 298 298 298 300 301 300 293 300 301 297 291 297 303 302 303 303 303 302 296 292 300 302 301 301 301 301 300 301 301 302 303 302 296 302 303 303 302 302 302 302 301 300 298 297 296 295 295 295 296 296
304 304 304 304 303 302 301 301 301 301 301 301 302 302 301 301 300 300 299 300 300 301 301 301 300 299 298 299 298 299 299 299 299 298 298 298 297 297 296 296 299 301 300 298 300 299 298 296 300 301 302 301 303 297 300 294 299 303 302 301 300 300 300 301 300 300 301 300 299 301 302 302 302 303 302 303 301 302 301 300 299 298 298 296 295 295 295
304 305 304 304 303 302 301 301 301 300 301 302 302 302 302 302 301 300 300 300 300 300 300 300 296 299 300 299 299 298 298 298 298 298 298 297 296 296 295 297 300 300 291 293 295 296 301 301 300 296 298 296 297 290 287 293 302 303 301 300 300 299 300 299 301 300 300 301 301 301 300 301 302 302 303 305 304 302 302 301 301 300 300 298 295 296 295
304 304 304 303 302 302 301 301 300 300 301 301 301 301 301 302 302 301 300 300 299 299 299 300 298 297 300 299 299 298 298 298 297 297 297 298 299 300 298 298 300 300 288 295 296 299 299 301 300 298 289 289 291 287 286 299 303 303 301 299 298 299 299 299 299 300 300 300 300 300 301 301 301 301 301 303 304 304 303 302 301 301 300 300 299 297 297
303 304 303 302 302 301 301 301 301 301 300 300 301 302 302 301 301 300 300 299 299 298 299 299 298 298 298 298 298 297 297 297 296 296 296 296 297 299 302 299 299 296 289 293 296 297 298 299 297 290 286 286 286 285 292 300 301 301 301 300 299 299 299 300 299 299 300 299 299 300 300 299 301 301 302 302 303 304 303 303 303 302 301 302 302 300 299
303 303 303 302 302 301 301 300 300 299 300 300 301 300 300 300 300 300 300 300 298 298 297 299 298 298 298 298 298 298 297 298 297 297 295 294 294 295 298 294 297 297 293 288 294 297 299 296 290 285 286 285 286 285 295 299 301 300 300 300 300 299 299 299 299 299 299 300 300 300 299 301 302 301 302 303 300 302 303 303 303 303 303 301 300 300 300
303 303 303 296 300 301 301 301 300 300 299 299 299 299 299 299 299 300 300 300 299 299 300 300 299 299 299 298 298 298 298 298 298 298 298 297 295 297 299 294 298 292 289 287 295 296 298 286 285 286 285 285 285 291 298 299 298 300 300 299 299 299 299 299 299 299 299 299 299 299 300 301 301 302 302 303 302 303 302 299 300 303 304 303 302 301 301
302 302 302 302 302 302 301 301 301 300 299 298 297 297 298 298 298 299 300 300 299 299 300 300 299 299 300 299 298 296 296 296 296 297 298 299 298 296 295 292 291 289 290 293 294 296 293 291 287 286 286 285 285 295 298 298 299 299 298 299 299 300 299 300 299 299 299 299 298 297 295 298 300 302 301 300 302 302 302 302 303 303 303 302 301 300 298
301 301 301 301 301 301 301 301 299 298 298 298 298 298 298 298 298 299 300 300 299 299 300 300 299 300 300 300 300 300 299 297 294 295 298 298 299 298 298 299 295 287 288 288 290 288 284 286 285 286 286 285 292 296 295 295 294 295 296 297 297 298 298 299 298 298 298 299 298 299 299 300 300 300 300 301 301 301 302 301 301 301 303 302 302 303 301
302 301 301 302 302 301 301 300 299 299 299 300 298 298 298 297 298 298 298 298 298 298 298 299 299 299 300 298 299 300 299 299 298 296 298 298 298 298 298 294 288 287 290 293 294 296 288 285 286 285 286 287 293 293 293 292 291 292 292 292 292 293 294 294 295 295 296 297 297 297 298 298 299 299 300 299 300 300 299 300 301 301 302 300 301 300 300
301 301 301 301 301 300 300 300 299 300 301 300 299 299 299 298 296 297 297 297 297 295 297 297 298 298 299 300 299 299 300 299 298 298 297 297 297 297 295 295 293 289 288 291 293 293 288 287 287 287 288 291 291 291 291 290 291 290 290 289 289 291 290 289 288 288 293 293 294 294 294 294 296 294 295 297 297 298 299 299 300 295 292 295 299 300 300
300 300 300 300 301 301 301 301 301 301 301 301 300 299 297 297 297 296 297 297 297 296 296 296 297 298 299 299 299 299 298 298 297 293 295 296 296 292 291 292 292 290 291 290 292 291 292 291 291 289 289 290 291 290 290 289 290 289 287 288 288 288 289 288 289 290 291 290 291 291 291 291 291 292 294 294 295 295 296 296 297 297 299 299 299 299 299
301 301 301 302 302 302 302 302 302 302 301 301 300 298 297 297 297 297 297 292 297 296 296 295 294 297 299 299 298 298 297 296 295 296 293 295 293 293 292 289 291 291 292 292 291 292 291 290 288 287 287 289 290 289 287 287 288 288 287 287 286 287 287 287 287 287 288 289 289 289 288 288 288 289 290 290 291 292 293 294 295 295 295 295 296 295 296
Wind_Speed
2 1 1 0 1 1 1 1 2 3 3 4 4 4 5 7 3 4 4 4 5 5 7 8 8 9 9 8 8 8 8 9 10 11 11 11 11 11 11 10 10 10 11 9 10 9 6 8 8 8 8 8 7 6 2 3 5 7 6 9 11 13 14 15 16 15 14 14 13 12 11 11 10 8 8 7 6 6 6 6 5 6 6 6 6 5 4
1 0 2 2 3 4 4 2 0 2 3 3 3 3 3 5 4 3 4 4 4 5 7 7 8 7 7 7 6 7 9 10 11 12 11 11 11 11 11 11 11 11 11 10 10 10 9 6 6 7 6 6 7 7 7 6 4 5 7 9 9 11 13 14 14 14 14 13 12 13 11 11 9 8 8 8 8 6 7 7 7 6 6 6 6 5 5
2 1 2 3 3 3 2 2 1 1 2 2 2 2 1 2 1 2 3 3 1 5 6 8 8 7 7 7 8 8 9 10 11 12 12 12 12 12 12 11 11 11 12 12 12 12 11 9 8 5 5 4 2 4 4 5 6 7 6 7 7 9 10 11 12 13 12 11 12 14 12 9 8 8 8 8 8 8 7 7 7 7 6 7 7 6 5
2 2 4 3 2 1 2 2 2 1 1 2 0 2 1 4 3 4 4 4 3 6 8 8 7 8 8 9 9 9 8 10 11 11 12 12 13 13 13 13 12 12 12 12 13 13 13 11 9 7 5 5 3 1 3 5 6 6 7 7 7 8 8 11 10 10 10 11 12 12 12 12 10 9 8 8 8 9 8 7 7 8 9 9 8 6 4
0 2 3 5 5 7 8 8 5 2 1 2 2 3 3 3 3 4 2 4 6 8 8 8 8 9 9 9 9 8 9 10 11 11 12 12 12 12 13 13 13 13 12 12 12 12 12 11 11 10 7 5 4 4 4 4 4 6 7 7 7 9 8 10 9 8 9 10 9 11 12 13 11 9 9 9 9 10 10 9 8 9 9 9 8 7 6
0 3 5 4 5 6 1 6 3 1 2 2 4 3 4 4 5 3 4 5 6 8 8 9 9 9 9 9 8 5 7 8 10 11 11 11 12 12 12 12 13 13 12 12 12 12 12 12 11 11 9 6 5 5 4 4 5 5 6 6 7 8 8 8 8 9 8 9 9 12 12 11 8 9 9 10 10 10 8 8 9 9 10 10 8 8 7
1 3 4 4 6 3 8 3 4 2 1 3 4 6 5 6 5 4 5 4 7 7 7 8 9 8 8 8 5 6 7 8 9 10 11 11 12 12 12 13 13 13 13 13 13 12 12 12 10 9 9 8 7 5 4 4 4 5 5 5 6 6 7 7 7 7 6 6 8 8 8 9 8 8 9 9 11 10 9 10 10 11 11 10 9 8 7
1 3 4 3 1 6 5 3 4 2 2 1 5 7 5 3 3 4 5 5 6 7 8 8 7 8 9 3 3 6 7 8 8 10 10 11 11 11 11 12 12 12 13 13 13 12 11 11 10 10 10 9 8 7 4 4 3 3 4 5 5 4 5 5 6 5 5 7 8 8 7 7 8 9 10 11 13 11 10 9 10 10 10 9 9 8 7
3 2 3 5 3 5 6 3 6 6 3 2 4 4 3 6 2 3 4 5 6 7 7 8 8 9 7 2 4 6 10 9 9 9 9 10 10 10 11 11 11 11 12 12 12 11 11 11 11 10 10 10 9 8 7 5 4 3 3 3 4 4 5 4 5 5 4 6 7 7 9 10 11 11 11 11 10 10 10 10 11 10 10 9 8 8 8
3 5 5 4 4 4 4 2 7 2 1 0 2 4 7 6 3 2 4 5 6 7 7 8 9 10 7 2 3 7 10 9 9 9 9 9 9 9 10 11 11 12 11 11 11 11 11 11 11 10 10 10 9 8 7 6 6 6 4 4 3 3 4 4 5 5 4 5 6 7 9 11 11 12 12 11 9 7 9 9 10 10 9 8 8 8 8
2 4 4 3 5 1 4 5 3 3 1 2 3 5 5 7 2 1 3 5 6 6 7 7 7 7 6 5 6 8 9 9 9 9 9 10 9 9 10 11 12 12 12 12 12 11 11 11 12 12 12 11 10 9 9 8 7 6 6 5 5 5 4 4 4 4 5 6 7 6 6 7 7 8 6 6 6 7 7 9 9 9 9 8 8 8 8
3 4 4 5 1 0 4 6 4 3 1 2 6 6 2 5 1 2 3 5 6 6 6 6 6 5 6 7 7 9 9 9 8 8 10 10 10 10 10 9 10 11 12 12 12 13 12 12 11 11 11 11 11 9 9 9 8 8 7 6 6 5 5 5 4 5 5 6 7 7 6 3 2 3 5 6 8 7 6 6 5 6 7 7 8 7 7
3 2 5 4 2 3 5 5 5 4 3 3 5 5 4 4 1 2 2 5 5 5 6 5 6 4 4 6 8 8 8 8 8 8 8 9 9 11 11 11 10 10 11 11 12 13 11 11 11 10 10 11 11 10 10 9 9 8 7 6 6 6 5 5 5 5 5 6 8 8 8 7 6 6 7 8 8 8 7 6 7 8 8 8 8 8 7
4 2 5 4 3 5 6 5 5 5 4 4 3 6 1 3 1 2 3 5 5 5 6 6 5 7 7 8 8 8 9 9 9 9 9 10 11 10 10 11 10 10 11 12 12 12 12 11 11 10 10 11 11 11 11 10 10 9 9 8 7 6 6 5 5 5 6 6 6 6 7 8 8 8 9 9 9 9 8 7 7 10 11 10 9 8 7
1 2 5 4 5 3 5 10 6 4 4 2 5 4 2 1 4 3 4 4 5 5 6 6 7 8 9 9 9 9 10 10 10 10 10 10 11 12 12 13 12 10 10 11 12 12 11 11 11 10 10 11 11 11 11 11 9 9 9 8 8 8 7 7 5 5 5 6 6 5 7 8 9 9 9 10 10 11 11 12 14 14 12 10 9 8 8
5 2 2 1 3 7 10 8 3 5 8 7 5 4 6 3 5 4 4 4 5 6 6 7 8 9 10 9 9 10 11 11 11 11 11 11 11 11 10 10 10 11 11 11 12 12 12 12 11 11 10 11 11 12 12 10 9 9 8 8 8 8 8 7 7 6 6 6 7 7 7 8 9 10 10 10 11 9 11 12 12 12 11 10 10 9 9
3 2 3 4 3 4 8 7 6 7 7 6 6 6 6 6 5 3 5 5 6 7 7 8 9 9 9 10 10 11 12 12 11 11 11 11 11 11 11 11 10 10 11 12 12 12 12 13 12 11 10 11 12 12 11 10 9 9 8 9 8 8 8 8 7 6 6 6 7 7 7 8 9 10 11 8 6 8 11 11 10 11 11 11 11 10 9
5 10 12 10 8 6 6 7 6 7 7 7 6 7 7 6 6 5 6 7 7 8 8 9 9 9 10 11 11 12 12 11 11 11 11 11 10 10 10 11 11 10 11 12 12 13 13 13 13 12 12 12 13 12 12 10 9 9 9 8 8 9 9 8 8 7 7 7 8 7 8 8 10 10 11 11 11 9 9 9 8 10 9 9 10 10 9
3 3 5 3 5 6 7 7 5 6 7 8 7 7 7 7 7 8 7 7 8 8 8 9 9 10 10 10 11 11 10 11 11 12 12 12 12 13 13 12 11 11 12 13 14 14 14 13 12 12 13 13 12 13 12 12 11 10 10 9 10 9 9 9 8 7 7 7 6 7 8 8 9 9 11 11 11 12 12 12 13 12 13 12 10 10 9
8 7 7 4 1 3 4 5 6 8 7 6 6 6 6 7 8 8 8 7 8 7 8 7 8 9 10 11 11 10 11 11 11 12 12 13 13 13 13 13 13 13 13 14 15 15 14 14 13 13 13 14 14 14 13 12 11 10 10 10 10 11 11 10 8 8 8 6 8 8 8 9 9 9 10 11 13 13 13 14 13 13 12 11 10 9 9
7 9 11 11 9 10 11 10 8 6 5 4 4 5 7 8 9 9 8 7 8 7 8 7 7 9 10 10 11 12 11 12 12 13 14 14 14 14 15 15 14 14 13 13 13 14 15 15 14 14 14 13 14 14 13 12 11 10 10 11 11 12 11 10 8 7 7 8 7 8 8 9 10 11 11 11 12 12 14 13 11 10 9 8 8 8 8
6 5 4 3 3 3 2 4 6 6 4 5 7 7 7 7 8 7 7 6 6 6 6 8 9 10 10 11 12 13 13 13 14 14 14 14 15 15 14 13 14 14 13 13 12 12 12 14 16 16 15 14 14 14 13 11 10 10 10 10 11 11 10 9 9 8 8 8 7 8 8 8 9 10 11 5 7 10 11 11 13 12 13 11 11 9 10
4 4 4 2 5 7 7 7 4 3 3 6 8 8 8 7 6 6 6 7 7 6 8 8 9 10 10 12 12 13 12 13 13 13 13 13 13 13 13 13 13 13 13 12 11 12 14 15 17 17 15 15 14 14 13 12 11 12 12 10 10 10 10 9 8 8 9 8 8 8 8 8 8 9 8 6 5 6 7 9 14 15 12 13 13 14 11
10 9 7 5 5 7 6 6 6 6 5 6 9 8 8 8 6 5 6 6 8 9 9 10 10 11 12 11 11 12 12 13 13 12 12 12 12 12 11 12 13 14 13 12 12 13 13 15 17 17 16 15 15 14 13 13 11 11 12 11 10 10 10 9 9 8 8 9 9 9 8 8 8 8 9 9 4 7 10 4 13 15 17 12 6 5 4
8 5 5 4 5 7 7 7 7 7 7 8 9 9 7 6 5 4 5 7 8 10 10 9 10 10 10 10 10 11 11 12 12 12 12 11 11 11 11 12 13 12 11 11 11 11 11 13 14 14 15 15 15 14 14 14 13 12 12 11 10 10 10 9 9 9 9 8 8 8 8 8 8 8 8 8 9 4 3 8 5 5 8 7 7 5 5
9 9 7 4 6 8 8 8 10 9 6 5 5 2 5 5 7 7 8 9 8 8 7 7 8 8 8 9 8 10 11 12 12 11 11 12 12 12 13 13 13 12 12 12 12 12 13 14 14 14 13 14 14 14 14 14 13 13 13 12 12 10 9 10 9 9 9 8 8 8 8 8 8 8 8 8 10 6 7 4 2 3 3 2 4 6 4
8 8 8 9 10 10 8 9 6 2 3 5 5 7 7 7 5 6 8 7 6 5 5 6 6 6 7 8 9 9 10 11 12 12 12 13 14 13 13 13 13 13 13 12 13 13 14 13 14 13 14 13 13 13 14 14 14 13 13 12 10 14 16 11 9 9 8 8 7 7 6 7 8 9 9 9 9 6 7 8 8 8 5 2 2 5 5
8 7 8 10 10 9 6 1 1 2 4 6 6 4 4 3 7 7 8 8 6 5 6 5 5 8 9 9 10 10 11 12 12 13 13 13 13 12 13 14 13 13 13 13 13 14 13 13 13 14 14 13 13 14 14 14 14 12 11 12 13 10 9 12 11 7 7 6 6 6 6 7 7 8 7 7 5 9 8 7 7 7 6 7 5 3 4
8 8 8 10 12 11 2 4 2 3 5 6 5 2 4 6 6 6 6 6 5 5 6 7 8 8 9 9 9 11 11 12 13 14 13 12 13 13 13 13 12 13 12 13 13 13 13 13 13 13 13 13 13 14 14 14 13 11 9 9 8 8 7 11 14 8 6 6 6 5 5 7 7 7 8 8 8 8 6 5 7 7 7 6 7 5 5
6 5 6 7 8 9 10 10 8 7 7 8 8 6 5 6 7 5 5 6 5 6 6 7 7 8 8 9 9 10 11 12 12 12 12 13 13 13 13 13 12 12 12 12 13 13 13 13 12 12 12 12 14 13 13 12 12 13 12 10 8 8 7 10 12 12 8 7 6 3 6 7 7 7 7 7 7 5 4 5 7 6 6 7 8 8 9
5 4 6 6 6 6 8 8 7 7 9 8 6 6 6 5 5 4 4 4 5 6 7 8 8 8 8 9 9 10 10 10 11 11 11 12 12 12 12 12 11 11 11 13 13 12 12 12 11 12 11 13 13 13 12 12 11 12 11 9 8 8 11 11 12 10 7 6 5 5 6 6 6 6 6 6 7 5 4 5 6 6 4 4 8 7 7
7 6 6 6 6 7 7 6 6 6 7 6 5 6 5 4 5 6 6 6 6 7 7 8 8 8 8 9 10 11 11 11 11 11 11 11 11 11 10 11 11 11 11 11 11 11 10 11 12 12 13 13 13 13 11 11 11 11 10 9 9 6 5 9 12 10 4 6 5 5 5 6 6 5 5 6 7 7 5 6 6 7 7 5 6 6 9
6 7 7 6 5 5 5 4 5 5 6 5 5 3 2 2 3 4 5 5 6 6 7 6 7 7 8 9 9 10 10 10 11 11 11 11 11 10 10 9 10 10 10 9 9 9 10 11 11 12 13 13 13 13 11 10 10 10 10 10 9 8 6 6 9 11 6 5 4 3 5 5 5 5 6 6 7 6 5 5 6 6 7 7 8 10 12
7 5 4 2 4 4 5 4 3 4 3 3 1 2 3 3 3 4 5 5 6 7 6 6 7 7 8 9 9 10 10 10 9 10 10 10 10 10 10 10 10 10 9 9 8 9 9 10 10 10 12 13 13 11 11 11 10 8 9 10 10 10 9 8 11 10 5 4 4 3 3 4 4 4 5 5 6 6 6 6 5 5 5 7 7 9 9
5 2 1 2 2 1 0 2 3 3 1 2 2 3 3 4 4 5 3 5 6 5 5 6 7 8 10 9 9 9 10 10 9 9 9 9 9 10 10 10 11 10 10 9 9 9 9 10 10 11 12 12 11 12 11 11 11 11 11 11 11 10 10 8 9 11 5 4 3 3 3 3 3 3 4 4 5 6 6 5 4 5 4 4 3 6 4
5 4 3 3 3 3 3 2 2 2 1 2 3 4 5 6 6 7 7 6 5 5 6 7 8 9 9 9 9 9 9 9 9 9 9 10 10 9 10 11 11 11 11 10 9 10 10 9 9 11 10 9 10 11 9 10 10 10 10 10 9 10 10 11 7 8 10 5 4 4 4 3 4 3 3 4 5 5 7 7 6 6 5 6 4 4 3
5 4 4 4 5 5 4 4 3 3 2 2 4 5 6 6 7 7 6 6 5 5 6 7 7 9 9 8 8 8 8 8 7 8 8 9 9 10 11 11 12 11 11 10 11 11 10 10 9 12 10 8 9 10 8 7 9 9 8 7 8 10 10 10 9 7 9 6 4 4 3 3 3 2 2 4 4 5 6 6 6 5 5 5 5 6 5
5 6 5 5 5 6 6 4 3 3 3 3 4 5 5 6 6 6 7 7 6 5 6 7 9 9 8 8 8 8 8 8 9 9 10 10 10 11 11 10 9 9 9 9 11 10 9 10 12 10 9 8 9 9 9 8 11 9 6 6 6 7 8 10 9 5 8 12 9 5 5 4 4 4 3 4 4 5 6 7 5 5 5 5 6 6 6
7 7 7 6 6 6 5 5 5 4 3 5 5 5 6 5 5 6 7 7 7 7 6 8 8 8 9 9 8 8 8 8 9 10 11 11 10 10 10 9 6 7 8 9 10 10 10 10 10 9 9 9 10 10 10 9 12 8 7 6 6 7 8 8 8 7 5 4 9 11 8 5 4 4 4 5 5 5 5 6 6 5 6 5 4 4 5
8 8 9 8 8 7 6 6 5 4 4 4 5 6 6 6 6 6 7 8 8 7 7 8 8 8 9 9 9 8 8 9 9 10 11 11 11 11 10 9 6 7 8 11 10 9 9 12 10 9 10 11 9 8 8 9 12 9 9 7 7 8 8 8 9 8 5 3 3 5 9 9 6 5 5 4 5 5 5 5 6 6 6 5 5 5 5
9 9 9 9 9 7 7 6 5 5 5 5 5 5 4 5 6 6 7 8 8 8 8 7 8 8 9 9 9 8 9 9 10 11 11 11 11 10 10 10 7 7 8 9 8 9 10 8 8 9 9 10 9 9 8 11 9 8 9 8 9 9 9 10 10 10 9 9 8 8 7 8 8 7 5 4 4 5 6 5 5 6 6 6 5 5 6
9 10 10 10 9 8 7 6 5 6 6 6 6 5 4 3 4 6 7 7 8 8 7 8 5 7 9 8 8 8 9 10 10 11 10 10 11 9 9 8 9 6 9 9 9 9 9 9 8 7 9 10 9 12 13 9 8 8 9 8 8 9 9 10 9 10 10 9 9 9 8 8 8 9 8 6 4 2 4 5 6 6 6 6 6 6 6
9 10 10 10 9 8 8 7 7 7 7 6 6 6 4 4 5 6 7 8 8 8 8 9 6 7 8 8 8 9 9 10 10 11 10 9 10 7 7 7 8 7 9 9 10 11 10 9 7 7 11 11 10 14 15 9 8 8 8 8 8 9 9 9 9 9 9 9 9 9 9 9 9 8 8 8 7 5 3 3 5 5 5 6 6 6 7
10 10 10 9 9 9 8 8 8 7 7 7 6 4 4 5 6 7 8 8 9 9 9 9 9 9 9 9 9 9 9 9 9 9 10 10 10 5 3 4 6 5 7 8 9 10 10 7 7 11 13 15 16 17 11 10 9 8 9 8 8 8 9 9 9 9 9 8 8 9 9 9 9 8 8 8 7 7 6 5 4 4 4 5 6 6 7
10 10 10 10 10 9 8 8 8 8 7 5 5 6 7 7 8 8 8 8 9 8 8 8 9 9 9 8 8 9 9 9 9 8 9 10 10 10 5 3 5 5 6 8 8 10 7 7 9 12 14 16 16 18 11 9 8 8 8 8 8 8 8 9 9 9 9 9 9 9 9 9 8 9 8 8 8 8 8 7 6 6 5 5 5 5 7
10 10 10 10 10 10 8 8 8 6 5 5 7 7 7 8 8 8 8 8 9 8 8 9 9 9 9 8 8 9 9 9 9 6 4 6 8 8 6 6 6 5 6 9 8 9 5 9 11 12 16 16 18 13 9 8 8 8 8 8 8 8 8 8 8 8 8 8 8 9 9 9 9 8 8 8 8 8 7 7 7 5 5 5 5 5 5
9 9 10 10 9 9 8 7 5 4 5 7 8 8 7 8 8 8 8 8 8 8 9 9 9 8 7 6 6 8 9 9 9 9 6 4 5 6 6 5 5 3 7 7 8 6 6 7 10 12 14 17 18 10 8 8 8 8 9 8 8 8 8 8 8 8 9 9 10 11 10 9 9 9 9 8 8 8 8 8 7 7 5 5 6 5 5
9 10 10 10 10 9 8 6 6 7 9 10 10 8 7 8 9 9 9 8 8 8 9 9 8 8 7 6 5 5 5 7 9 8 7 5 5 6 8 9 7 8 7 9 9 6 10 10 9 11 13 16 11 8 9 8 8 9 9 9 9 9 9 9 9 9 9 10 10 10 10 10 10 9 9 9 9 8 8 8 8 7 6 6 6 4 5
11 11 10 10 10 10 10 10 10 10 11 11 11 8 7 8 9 9 9 9 9 8 9 8 8 6 5 4 4 4 2 2 4 7 5 4 5 6 7 5 5 3 7 7 8 8 8 8 6 7 12 11 8 8 8 8 8 8 8 8 8 8 8 8 8 9 9 9 9 9 10 10 10 10 10 10 9 9 9 9 8 8 8 8 8 7 2
13 12 11 11 11 11 12 11 12 12 11 10 10 9 9 7 8 9 10 8 8 7 8 8 7 5 4 4 4 3 2 2 2 2 4 5 5 5 5 5 6 5 4 7 7 7 3 1 3 8 10 7 7 7 8 8 7 7 7 7 7 7 7 9 9 10 9 9 9 9 9 9 10 11 11 9 9 9 9 9 9 9 5 5 6 6 7
12 13 12 12 12 12 13 13 13 13 13 11 9 9 7 7 8 9 9 9 8 8 8 8 6 3 4 3 3 3 2 3 2 1 3 4 4 5 4 5 7 6 6 6 6 6 6 6 7 8 8 7 7 6 6 7 7 6 7 7 7 7 7 8 8 8 8 9 8 8 9 9 9 10 9 9 10 10 10 10 10 9 10 9 8 8 7
14 13 12 12 13 14 14 14 14 13 10 8 7 6 7 7 9 10 11 9 8 8 9 8 9 4 4 3 3 3 2 0 2 1 2 2 3 5 3 2 5 4 5 5 5 5 5 6 6 6 7 7 6 6 6 6 6 6 6 7 6 6 7 7 7 8 8 8 8 8 8 8 9 9 9 9 10 10 10 10 10 10 10 10 10 10 9
Wind_Direction
325 326 356 205 117 72 160 351 339 19 1 16 15 2 342 329 338 8 31 356 337 12 1 355 353 351 342 347 352 350 351 352 358 354 358 5 10 10 7 4 3 4 2 9 9 12 18 17 12 7 4 2 2 353 321 218 224 237 227 222 230 228 223 221 220 215 215 219 219 216 208 207 197 184 180 173 170 164 160 171 188 191 191 202 201 212 200
13 314 202 188 171 159 167 154 355 5 5 21 12 17 346 347 27 3 356 338 352 20 359 348 347 339 334 340 329 339 351 354 354 349 351 355 358 2 4 4 1 359 356 357 360 1 5 359 9 13 10 351 355 351 344 330 291 247 233 240 235 234 230 226 222 217 217 217 220 218 205 197 184 179 180 173 168 167 174 181 182 183 184 204 209 210 211
62 44 148 189 173 190 148 152 211 216 296 324 336 324 343 271 206 350 327 301 12 57 360 342 340 329 329 332 339 342 344 344 348 347 349 350 350 349 350 354 355 357 352 354 354 353 351 352 352 357 348 352 309 300 291 297 291 292 285 261 245 242 240 236 224 224 226 221 215 218 206 184 175 179 179 173 173 171 177 184 175 161 177 200 207 211 212
161 168 197 172 187 235 291 202 181 214 256 241 230 272 319 295 338 319 287 247 10 0 347 332 329 336 339 336 341 338 340 342 341 344 346 346 346 346 346 346 346 347 348 349 350 347 343 343 342 344 336 329 344 309 285 271 267 255 251 249 249 253 250 254 240 226 224 222 219 215 203 194 185 180 174 174 174 173 173 176 171 170 189 201 201 201 207
6 128 229 208 234 268 251 224 170 223 143 290 303 271 256 259 264 265 311 8 356 337 330 328 338 338 338 334 337 332 335 338 336 339 343 341 343 344 343 343 343 348 346 342 341 343 338 341 338 338 325 306 308 307 273 255 249 249 250 255 258 262 259 256 258 249 235 231 229 226 216 210 192 169 172 173 177 179 184 181 167 182 193 196 194 192 198
14 131 209 223 251 264 22 76 88 209 290 325 298 290 277 243 233 306 343 328 329 327 333 333 336 335 340 327 326 330 330 334 338 338 338 343 344 344 344 344 343 345 343 343 340 338 335 335 337 331 326 308 297 287 282 271 253 248 254 255 261 264 263 262 259 250 238 238 230 231 222 201 165 167 168 176 180 186 184 171 177 188 196 195 193 194 197
308 144 197 224 253 267 99 151 98 107 321 273 295 302 267 254 248 256 273 314 334 336 325 326 326 331 335 332 349 359 2 350 346 343 342 348 347 345 345 344 345 343 341 340 337 336 337 334 329 329 333 336 317 302 296 288 258 265 260 258 256 262 267 270 271 266 262 251 252 248 199 170 169 172 175 178 185 190 186 178 186 194 192 193 193 192 191
247 224 215 250 348 84 179 144 165 100 214 158 274 274 220 230 231 261 285 323 322 325 322 324 329 328 330 330 36 10 11 8 358 350 348 348 346 349 349 347 347 344 342 339 337 334 327 328 336 340 340 335 327 322 306 283 274 259 274 277 278 274 272 269 265 257 248 243 238 212 176 168 173 183 185 190 192 193 188 185 192 195 192 193 189 189 192
274 286 266 279 6 222 166 174 195 221 263 296 319 306 313 147 222 276 300 310 322 324 323 324 328 327 313 197 81 27 15 11 5 357 355 351 348 350 350 353 350 348 343 340 339 334 331 330 336 343 340 337 332 328 325 322 313 295 286 290 297 286 277 269 261 255 245 250 238 226 208 190 189 192 194 194 192 196 184 185 192 194 190 190 189 193 190
269 286 290 264 236 277 160 191 81 83 87 301 259 275 261 144 191 223 296 313 324 321 325 325 328 315 290 230 37 15 8 6 360 358 359 358 354 350 351 356 352 353 349 344 339 338 340 338 342 338 336 336 331 331 333 333 337 335 321 317 314 305 288 286 274 264 247 234 235 222 214 215 213 210 201 194 184 178 186 189 197 194 188 189 192 192 191
215 257 266 269 289 19 75 139 162 127 164 212 259 256 246 132 181 242 299 298 317 318 319 324 318 318 315 341 356 5 356 358 355 349 360 358 357 355 357 359 354 350 348 347 345 349 346 348 344 339 335 332 334 336 340 340 337 333 336 334 333 328 317 296 264 248 236 236 222 227 229 223 207 177 171 163 142 153 187 212 206 197 192 194 191 192 188
248 290 275 285 324 338 169 123 153 130 146 209 250 274 109 163 165 297 288 291 316 315 319 317 306 324 316 331 348 350 344 344 338 347 348 352 351 355 353 0 354 340 346 347 351 353 354 352 344 341 341 337 335 330 337 333 335 344 347 342 331 327 314 303 285 260 222 210 220 223 200 165 104 164 152 150 168 195 199 210 207 200 193 202 192 195 183
109 169 280 294 246 130 139 147 127 133 179 225 246 276 68 95 19 284 301 289 299 311 305 311 307 337 330 320 326 332 327 325 333 339 336 339 344 345 346 349 342 340 345 347 346 349 350 348 346 345 345 344 337 340 334 329 337 336 333 328 325 318 313 297 278 256 237 226 217 208 202 198 174 173 181 184 180 180 179 189 187 200 192 203 198 196 185
271 290 285 283 309 75 149 128 149 152 191 239 299 62 270 23 299 318 302 302 300 309 310 308 314 319 322 314 316 325 332 333 327 324 333 335 335 336 339 337 341 342 336 337 340 343 344 343 342 340 341 339 337 340 334 338 341 328 324 321 311 304 292 294 289 270 249 241 238 224 210 206 195 192 190 187 189 188 173 183 196 217 207 201 199 192 189
245 237 274 294 278 124 176 132 155 191 246 6 37 336 3 221 300 310 308 302 320 316 306 308 307 309 312 317 319 327 329 327 328 326 326 331 331 336 338 339 348 346 336 337 339 336 335 337 337 336 334 330 332 335 331 337 333 329 325 316 311 309 305 295 282 266 257 238 226 219 210 201 197 194 190 192 190 186 191 194 202 209 201 198 196 193 193
292 246 244 293 45 118 159 179 266 171 228 317 329 309 286 294 273 284 302 321 333 325 301 306 306 310 314 316 319 322 327 329 327 325 325 324 326 328 335 335 345 340 337 341 339 339 337 335 331 330 328 324 325 324 326 333 327 321 320 322 319 311 305 296 287 275 260 249 233 227 214 206 206 204 194 195 196 194 198 202 203 203 199 197 197 198 196
225 303 329 47 96 142 179 215 261 294 299 285 285 279 284 292 289 320 293 313 317 310 309 304 308 308 314 318 323 324 327 328 328 328 329 327 327 333 339 339 343 337 336 335 336 339 341 339 335 329 326 322 319 313 320 321 320 321 323 322 322 314 308 304 294 282 269 256 244 235 225 207 211 217 216 187 179 199 203 207 209 211 207 196 199 199 199
260 269 263 275 258 229 227 222 254 277 277 276 269 267 270 260 288 295 298 311 311 315 317 309 310 312 322 325 326 325 326 328 330 327 329 328 329 331 330 331 339 325 326 328 332 336 337 339 336 335 331 324 315 313 311 311 309 311 314 315 316 316 313 307 300 291 277 262 250 238 229 222 218 221 217 191 198 196 199 197 189 203 208 206 200 201 199
309 292 119 228 259 259 246 255 250 239 252 271 267 260 259 278 291 296 296 296 301 304 309 310 311 313 320 320 320 322 325 329 331 331 329 327 326 326 325 329 327 325 324 323 327 330 331 336 334 333 331 327 321 314 310 305 304 302 305 307 306 305 307 305 299 286 276 274 266 243 232 229 225 222 224 218 208 201 200 207 207 203 201 202 198 200 204
252 265 285 295 227 258 260 260 271 270 266 249 248 260 272 279 281 282 287 287 289 297 298 313 308 309 316 317 319 321 324 325 324 325 325 325 323 321 319 317 323 322 322 321 321 324 326 330 332 330 326 325 324 320 310 303 300 298 295 297 300 302 302 302 298 298 289 265 256 264 252 244 243 236 222 219 224 213 210 211 202 203 201 196 194 194 200
261 265 260 263 264 261 256 254 253 271 298 302 268 267 275 281 286 288 289 287 287 294 303 306 310 310 312 314 320 320 318 319 322 324 321 318 316 317 316 317 316 315 317 317 317 320 322 326 328 325 323 319 320 319 315 305 300 296 295 293 292 293 296 296 293 294 289 288 279 268 262 250 243 244 243 235 229 226 220 213 195 185 182 187 187 193 194
260 268 314 10 289 287 252 206 233 240 247 274 281 280 281 286 292 295 292 289 296 296 314 314 313 311 311 316 319 316 316 317 319 319 320 320 319 318 320 320 320 318 317 320 319 316 319 324 323 324 322 319 316 317 318 310 301 297 295 294 293 295 295 294 298 299 300 296 285 271 264 265 259 249 236 233 272 250 226 188 188 189 188 184 187 190 197
280 348 339 332 293 287 287 308 298 275 262 274 287 294 300 303 296 291 288 301 310 310 306 305 304 304 306 310 317 314 313 316 319 321 323 325 324 321 322 319 318 320 321 322 317 316 318 321 320 324 323 319 315 313 317 313 304 299 296 295 298 299 298 297 307 306 300 296 296 290 277 265 257 261 256 166 107 33 350 186 187 194 203 212 202 201 203
281 286 291 291 271 275 293 284 280 278 281 277 283 288 291 294 297 303 306 313 313 312 312 308 309 311 312 313 316 315 317 318 321 324 327 322 317 316 316 317 318 319 321 318 316 318 318 319 322 324 320 315 312 313 318 321 309 295 289 290 294 299 300 301 301 294 296 295 294 287 281 276 268 262 257 251 160 70 23 296 204 197 194 192 177 182 196
270 292 302 299 279 277 275 281 291 283 272 278 281 290 317 321 334 345 324 322 317 314 313 313 315 320 323 324 323 322 325 323 325 328 316 304 307 314 318 321 324 325 322 318 312 311 313 319 322 322 316 314 314 319 321 317 310 297 289 285 285 288 290 292 294 289 287 287 284 285 283 280 278 269 257 258 251 186 89 32 23 202 187 163 161 166 171
256 267 275 275 272 269 271 275 265 267 287 296 292 359 69 53 14 348 325 311 312 319 318 324 324 330 331 327 328 328 325 326 327 316 315 324 325 324 325 325 325 324 322 316 311 307 315 324 322 318 318 319 324 326 321 316 310 301 296 290 284 278 279 293 295 295 292 293 289 285 285 281 281 278 274 265 262 210 168 183 136 38 27 124 157 145 162
246 255 266 267 261 261 249 250 283 82 95 87 96 88 59 25 331 297 292 291 294 310 321 326 322 326 324 327 333 330 328 327 325 326 327 323 322 323 322 322 326 322 317 314 312 317 322 320 319 320 321 326 329 327 322 320 318 315 308 301 296 300 300 274 279 292 293 293 291 289 283 283 281 272 269 270 268 251 185 191 191 186 172 150 162 190 186
268 256 238 251 264 275 314 293 57 126 125 125 121 100 54 278 268 275 279 290 314 329 321 320 327 331 331 339 338 332 333 330 329 326 323 322 321 320 321 326 324 321 317 313 311 315 319 318 318 320 321 326 327 324 322 320 320 318 323 314 305 301 314 288 266 278 291 291 294 290 285 278 271 269 272 269 255 249 230 195 186 187 178 180 171 177 199
255 251 237 240 254 268 244 161 189 185 160 156 170 222 242 254 271 279 289 309 331 327 322 334 335 335 337 335 334 332 331 329 326 326 322 321 319 319 322 322 320 314 313 316 320 325 323 321 321 320 322 331 328 324 321 319 312 308 304 297 303 309 306 303 302 309 301 299 287 290 291 286 282 268 258 256 255 243 222 186 197 203 195 150 131 133 181
250 241 236 241 246 252 249 246 244 224 193 187 214 242 246 257 278 295 310 324 328 317 329 328 331 333 335 331 335 332 329 326 323 320 320 317 319 322 322 322 320 319 322 324 325 325 321 322 324 325 332 333 326 323 323 319 314 310 307 306 303 308 316 306 298 292 296 294 296 305 282 276 270 266 257 248 233 213 199 190 192 197 180 162 163 161 171
262 244 252 256 253 250 249 250 244 219 205 224 245 271 284 275 281 291 307 316 313 321 334 328 330 327 332 332 330 327 322 320 319 319 317 320 323 328 329 328 327 329 327 325 325 324 323 327 328 330 335 330 325 325 324 319 316 313 309 308 311 323 320 304 289 292 300 305 307 297 292 284 275 262 249 232 222 209 199 194 185 184 222 170 165 163 173
264 240 230 232 233 236 233 231 225 215 224 230 240 266 279 289 305 319 323 319 328 327 320 323 325 331 330 330 328 326 324 323 321 320 322 329 332 334 331 330 336 336 336 338 335 336 339 333 335 340 336 331 327 325 321 315 312 310 310 312 311 314 296 274 283 283 290 294 295 292 293 290 286 270 240 230 219 205 190 195 200 186 199 174 169 187 193
246 243 229 223 219 216 232 226 245 236 219 229 267 299 290 283 302 308 313 316 312 315 315 318 324 324 325 325 325 325 326 325 324 328 335 333 338 338 338 340 339 341 346 352 356 354 350 345 345 339 333 325 325 328 325 315 315 314 318 315 315 310 301 299 293 290 278 275 284 316 314 300 289 270 254 244 229 208 192 195 210 205 203 201 200 204 202
247 273 336 225 216 232 228 215 234 255 256 277 268 258 284 290 299 306 310 316 310 307 315 321 314 316 320 325 322 322 325 325 330 335 335 338 337 340 338 335 333 336 344 355 356 358 358 356 355 346 334 326 321 330 330 324 319 321 318 318 314 314 312 312 279 261 288 296 318 319 289 295 289 280 260 237 234 220 205 195 209 212 212 213 217 227 183
239 227 247 240 173 102 30 265 231 241 245 258 256 283 301 310 307 311 323 299 301 315 312 304 310 317 321 320 321 321 323 326 328 324 330 334 336 335 334 328 329 331 337 343 354 359 355 354 2 347 336 329 327 334 342 342 329 318 315 315 316 316 319 306 305 296 297 311 309 313 322 316 318 293 265 253 242 226 216 206 211 220 236 241 235 257 176
195 191 178 174 159 152 154 131 138 153 177 276 302 311 312 315 313 304 302 305 319 308 309 311 315 316 318 319 318 320 321 323 326 326 329 332 332 331 326 326 325 330 336 333 353 354 343 356 22 345 315 322 339 343 4 353 320 316 318 313 318 324 320 315 321 321 305 305 320 323 331 8 326 302 275 261 249 234 227 218 212 212 221 228 227 230 165
204 218 205 184 173 187 174 182 177 195 219 261 295 303 304 302 300 309 303 294 300 306 308 309 306 310 315 315 314 310 310 318 324 323 325 324 323 323 323 323 326 337 333 335 349 342 338 354 360 319 304 344 354 354 13 15 332 316 307 331 331 323 321 318 323 317 307 312 318 324 317 292 278 272 247 257 247 242 238 232 216 211 214 221 221 236 184
217 230 220 222 196 189 192 193 185 211 223 261 278 284 288 293 300 305 308 304 295 295 304 303 305 308 303 301 304 309 315 322 324 323 326 324 325 321 323 323 333 336 340 348 342 333 343 351 333 320 331 344 352 355 356 5 333 311 351 343 316 307 303 306 317 344 331 322 325 319 316 312 308 307 303 278 263 247 235 231 224 207 207 215 221 234 218
239 234 239 229 216 213 202 184 198 221 252 278 289 294 295 297 294 295 294 297 300 303 298 306 310 298 296 301 306 308 313 320 323 322 321 323 323 314 316 320 352 353 4 350 333 336 351 344 324 321 332 342 341 349 348 347 330 314 349 346 325 299 305 320 334 338 316 341 331 328 322 325 324 317 303 290 287 278 256 229 221 218 218 205 211 227 233
250 238 237 225 224 219 215 213 215 230 248 262 274 282 295 296 290 288 291 295 303 312 301 303 300 297 298 301 303 306 312 316 317 317 318 322 320 312 314 316 4 352 11 345 331 338 331 300 307 337 344 345 339 339 339 340 321 320 346 346 335 340 344 343 339 337 329 298 268 295 309 318 338 336 320 312 301 283 274 247 223 224 226 213 203 213 215
257 250 243 231 230 223 221 220 225 237 248 254 261 275 285 290 297 292 291 297 305 308 303 298 293 293 295 302 304 307 308 307 308 314 322 318 318 319 316 315 352 354 15 347 328 312 294 307 349 345 358 346 337 352 336 325 313 318 336 342 346 345 345 348 345 342 344 339 336 326 329 335 334 326 336 325 307 297 282 263 247 227 223 221 213 209 219
262 252 244 233 229 225 222 228 238 251 257 262 272 275 271 263 272 281 292 294 297 298 298 293 288 289 302 304 296 294 296 304 310 312 318 318 318 320 316 322 341 2 20 336 318 311 322 333 342 10 8 343 331 345 330 304 300 321 330 338 336 338 337 339 339 339 340 339 339 336 334 330 333 330 330 320 311 280 281 281 267 249 237 231 223 217 216
268 254 244 236 231 229 231 236 244 251 259 267 275 285 285 252 256 268 280 287 289 294 296 296 277 212 243 267 283 296 302 305 307 312 313 314 317 322 312 329 331 10 26 341 335 317 321 325 345 15 352 336 321 319 305 292 307 315 325 330 330 329 328 331 332 334 336 338 338 334 332 334 330 329 326 323 324 326 309 287 283 270 242 229 226 223 221
272 258 245 237 235 236 241 250 254 256 257 261 274 281 271 262 260 270 283 288 293 292 291 289 289 290 292 294 294 296 300 307 310 313 312 310 311 336 62 340 333 1 48 350 328 316 313 340 16 356 339 332 325 319 309 295 303 309 317 319 322 322 323 323 327 328 328 328 328 328 331 329 323 326 326 324 327 328 326 322 307 298 285 262 244 232 221
269 255 242 237 241 246 252 256 258 261 268 285 283 278 276 273 276 278 282 285 289 293 288 283 285 287 290 293 296 301 306 310 306 309 307 310 311 313 14 16 337 330 6 338 307 306 324 18 3 351 340 331 323 316 297 295 307 312 312 313 316 317 320 320 324 325 327 327 330 331 331 327 328 323 321 327 328 322 323 327 329 319 302 285 270 252 244
266 249 237 234 240 249 256 265 271 266 253 254 265 267 264 269 273 279 280 280 285 284 281 283 284 287 286 285 288 295 298 297 301 305 298 305 311 318 338 350 328 345 341 306 311 313 355 45 11 352 340 332 325 308 298 313 316 315 319 319 320 318 317 323 325 323 329 327 331 331 328 325 323 319 324 325 328 316 315 317 306 297 296 294 279 269 263
263 253 242 241 247 250 258 262 258 233 226 238 255 263 266 271 273 272 278 281 280 280 279 279 278 278 272 263 278 294 299 305 307 306 308 311 304 297 301 271 247 51 354 325 317 335 19 11 5 350 340 332 315 305 322 332 333 333 329 326 325 323 327 326 328 331 328 331 332 320 315 319 322 320 321 319 322 327 326 323 323 322 317 310 301 287 271
256 250 249 250 254 256 250 235 217 233 241 250 259 262 263 265 268 273 280 279 275 272 275 275 270 260 244 245 239 260 284 301 304 303 325 329 311 315 310 324 358 32 342 288 266 125 64 23 13 343 341 324 314 345 346 346 348 342 337 340 340 338 335 341 342 342 334 333 329 330 329 327 327 326 327 329 328 325 334 332 322 324 321 315 306 310 323
251 252 254 259 263 263 261 258 257 257 262 270 265 254 255 261 267 272 273 274 275 268 268 271 272 264 233 224 255 272 277 273 288 310 337 330 323 318 325 339 139 94 333 314 317 312 56 26 341 347 333 320 343 346 345 346 345 347 345 346 343 339 348 350 345 342 338 341 340 339 336 334 330 335 337 330 329 336 335 332 331 334 346 338 320 311 273
252 255 253 260 266 265 265 267 269 273 279 275 267 263 258 253 257 262 271 278 284 292 291 288 283 264 238 213 200 228 238 233 259 285 309 311 311 316 332 331 341 337 326 315 322 318 31 353 342 2 343 349 352 350 352 349 348 351 353 347 350 342 358 351 344 345 345 347 346 345 347 342 345 343 333 333 348 340 338 341 338 332 291 262 319 326 326
253 251 254 260 265 269 271 271 274 277 280 278 272 264 250 240 253 265 269 275 284 283 287 286 280 243 217 210 217 193 189 223 211 222 294 311 327 328 327 335 322 321 319 310 320 328 327 339 349 346 347 347 351 353 353 350 348 1 1 359 354 350 355 355 357 352 355 353 347 351 351 350 351 343 345 348 348 348 351 351 350 349 350 350 351 354 353
247 250 254 257 265 271 274 273 271 269 263 255 242 223 227 238 253 257 259 243 247 266 273 281 283 243 189 204 194 196 177 153 280 252 279 294 339 322 337 305 302 311 292 318 324 323 327 335 340 352 344 337 342 341 348 348 355 5 5 5 360 359 2 3 0 354 351 355 359 356 354 360 354 349 354 354 352 353 355 356 359 358 0 0 359 358 354